DAL8776 KJFK-KLAX

Flight info

Callsign DAL8776
Flight time N/A
Altitude 38000
Route RBV Q430 AIR J80 MCI/N0474F400 J24 SLN J102 ALS J44 RSK J64 TBC JASSE Q90 DNERO ANJLL4
Aircraft B772/H-SDE2E3FGHIJ5LORVWXY/LB1D1

Departure

Time N/A
Airport John F. Kennedy International Airport (KJFK)

Arrival

Time 2026-05-04 00:05
Airport Los Angeles International Airport (KLAX)
Time Latitude Longitude Altitude Speed Heading
2026-05-03 20:15 39.84043 -88.16057 37970 ft 415 kts 272°
2026-05-03 20:15 39.84089 -88.23561 37969 ft 414 kts 272°
2026-05-03 20:16 39.84128 -88.31056 37951 ft 414 kts 272°
2026-05-03 20:16 39.84157 -88.38502 37949 ft 414 kts 272°
2026-05-03 20:17 39.84185 -88.45995 37954 ft 414 kts 272°
2026-05-03 20:17 39.84208 -88.53486 37952 ft 413 kts 272°
2026-05-03 20:18 39.84227 -88.61009 37941 ft 413 kts 272°
2026-05-03 20:18 39.84242 -88.68433 37947 ft 413 kts 272°
2026-05-03 20:19 39.84253 -88.75947 37937 ft 412 kts 272°
2026-05-03 20:19 39.84259 -88.83354 37936 ft 412 kts 272°
2026-05-03 20:20 39.84263 -88.90805 37932 ft 411 kts 272°
2026-05-03 20:20 39.84260 -88.98242 37932 ft 411 kts 272°
2026-05-03 20:21 39.84250 -89.05685 37933 ft 412 kts 272°
2026-05-03 20:21 39.84238 -89.13133 37936 ft 412 kts 272°
2026-05-03 20:22 39.84222 -89.20582 37937 ft 412 kts 272°
2026-05-03 20:22 39.84200 -89.28024 37934 ft 411 kts 272°
2026-05-03 20:23 39.84172 -89.35461 37935 ft 411 kts 272°
2026-05-03 20:23 39.84140 -89.42878 37935 ft 410 kts 272°
2026-05-03 20:24 39.84104 -89.50288 37937 ft 409 kts 272°
2026-05-03 20:24 39.84063 -89.57688 37924 ft 409 kts 272°
2026-05-03 20:25 39.84018 -89.65096 37923 ft 409 kts 272°
2026-05-03 20:25 39.83623 -89.72495 37930 ft 411 kts 266°
2026-05-03 20:26 39.82952 -89.79884 37930 ft 412 kts 266°
2026-05-03 20:26 39.82285 -89.87282 37926 ft 412 kts 266°
2026-05-03 20:27 39.81620 -89.94681 37927 ft 412 kts 266°
2026-05-03 20:27 39.80953 -90.02083 37923 ft 412 kts 266°
2026-05-03 20:28 39.80284 -90.09480 37924 ft 412 kts 266°
2026-05-03 20:28 39.79610 -90.16881 37928 ft 412 kts 266°
2026-05-03 20:29 39.78930 -90.24282 37927 ft 412 kts 266°
2026-05-03 20:29 39.78245 -90.31676 37923 ft 412 kts 266°
2026-05-03 20:30 39.77554 -90.39077 37917 ft 413 kts 266°
2026-05-03 20:30 39.76859 -90.46487 37909 ft 413 kts 266°
2026-05-03 20:31 39.76160 -90.53891 37910 ft 413 kts 266°
2026-05-03 20:31 39.75456 -90.61300 37905 ft 413 kts 266°
2026-05-03 20:32 39.74751 -90.68647 37907 ft 413 kts 266°
2026-05-03 20:32 39.74154 -90.74841 37916 ft 412 kts 266°
2026-05-03 20:33 39.73318 -90.83429 37912 ft 412 kts 266°
2026-05-03 20:33 39.72598 -90.90823 37919 ft 413 kts 266°
2026-05-03 20:34 39.71995 -90.96972 37906 ft 413 kts 266°
2026-05-03 20:34 39.71255 -91.04428 37907 ft 414 kts 266°
2026-05-03 20:35 39.70521 -91.11788 37909 ft 414 kts 266°
2026-05-03 20:35 39.69771 -91.19203 37908 ft 414 kts 266°
2026-05-03 20:36 39.69016 -91.26611 37907 ft 414 kts 266°
2026-05-03 20:36 39.68260 -91.34012 37917 ft 414 kts 266°
2026-05-03 20:37 39.67498 -91.41410 37917 ft 414 kts 266°
2026-05-03 20:37 39.66734 -91.48818 37914 ft 414 kts 266°
2026-05-03 20:38 39.65969 -91.56221 37917 ft 414 kts 266°
2026-05-03 20:38 39.65200 -91.63622 37916 ft 414 kts 266°
2026-05-03 20:39 39.64429 -91.71020 37917 ft 414 kts 266°
2026-05-03 20:39 39.63652 -91.78419 37917 ft 414 kts 266°
2026-05-03 20:40 39.62868 -91.85817 37916 ft 414 kts 266°
2026-05-03 20:40 39.62080 -91.93208 37918 ft 414 kts 266°
2026-05-03 20:41 39.61288 -92.00603 37919 ft 414 kts 266°
2026-05-03 20:41 39.60497 -92.07946 37918 ft 414 kts 266°
2026-05-03 20:42 39.59695 -92.15345 37916 ft 414 kts 266°
2026-05-03 20:42 39.58887 -92.22732 37917 ft 414 kts 266°
2026-05-03 20:43 39.58076 -92.30115 37915 ft 414 kts 266°
2026-05-03 20:43 39.57260 -92.37494 37917 ft 414 kts 266°
2026-05-03 20:44 39.56441 -92.44877 37918 ft 414 kts 266°
2026-05-03 20:44 39.55616 -92.52258 37919 ft 414 kts 266°
2026-05-03 20:45 39.54786 -92.59648 37918 ft 414 kts 266°
2026-05-03 20:45 39.53951 -92.67039 37917 ft 414 kts 266°
2026-05-03 20:46 39.53110 -92.74421 37918 ft 414 kts 266°
2026-05-03 20:46 39.52266 -92.81802 37916 ft 414 kts 266°
2026-05-03 20:47 39.51416 -92.89190 37921 ft 415 kts 266°
2026-05-03 20:47 39.50562 -92.96573 37914 ft 415 kts 266°
2026-05-03 20:48 39.49706 -93.03909 37916 ft 415 kts 266°
2026-05-03 20:48 39.48844 -93.11287 37916 ft 415 kts 266°
2026-05-03 20:49 39.47977 -93.18660 37920 ft 414 kts 266°
2026-05-03 20:49 39.47106 -93.26030 37914 ft 414 kts 266°
2026-05-03 20:50 39.46227 -93.33398 37916 ft 414 kts 266°
2026-05-03 20:50 39.45340 -93.40765 37919 ft 414 kts 266°
2026-05-03 20:51 39.44445 -93.48126 37922 ft 414 kts 266°
2026-05-03 20:51 39.43552 -93.55482 37927 ft 414 kts 266°
2026-05-03 20:52 39.42650 -93.62833 37927 ft 414 kts 266°
2026-05-03 20:52 39.41746 -93.70185 37928 ft 414 kts 266°
2026-05-03 20:53 39.40838 -93.77524 37926 ft 413 kts 266°
2026-05-03 20:53 39.39926 -93.84858 37925 ft 413 kts 266°
2026-05-03 20:54 39.39011 -93.92186 37927 ft 413 kts 266°
2026-05-03 20:54 39.37630 -94.03171 37921 ft 413 kts 266°
2026-05-03 20:55 39.36703 -94.10488 37926 ft 413 kts 266°
2026-05-03 20:55 39.35777 -94.17758 37928 ft 413 kts 266°
2026-05-03 20:56 39.34842 -94.25076 37926 ft 413 kts 266°
2026-05-03 20:56 39.33900 -94.32408 37926 ft 414 kts 265°
2026-05-03 20:57 39.32952 -94.39740 37926 ft 414 kts 265°
2026-05-03 20:57 39.31999 -94.47066 37924 ft 413 kts 265°
2026-05-03 20:58 39.31045 -94.54383 37930 ft 413 kts 265°
2026-05-03 20:58 39.30083 -94.61708 37924 ft 414 kts 265°
2026-05-03 20:59 39.29118 -94.69031 37930 ft 414 kts 265°
2026-05-03 20:59 39.28167 -94.76363 37929 ft 414 kts 266°
2026-05-03 21:00 39.27475 -94.82466 37918 ft 414 kts 267°
2026-05-03 21:00 39.26531 -94.91057 37904 ft 413 kts 267°
2026-05-03 21:01 39.25710 -94.98398 37904 ft 413 kts 266°
2026-05-03 21:01 39.24874 -95.05736 37899 ft 413 kts 266°
2026-05-03 21:02 39.24032 -95.13066 37897 ft 413 kts 266°
2026-05-03 21:02 39.23185 -95.20399 37896 ft 413 kts 266°
2026-05-03 21:03 39.22333 -95.27724 37899 ft 413 kts 266°
2026-05-03 21:03 39.21477 -95.35054 37898 ft 413 kts 266°
2026-05-03 21:04 39.20618 -95.42381 37898 ft 413 kts 266°
2026-05-03 21:04 39.19758 -95.49664 37893 ft 413 kts 266°
2026-05-03 21:05 39.18879 -95.57030 37894 ft 413 kts 266°
2026-05-03 21:05 39.18012 -95.64293 37902 ft 413 kts 266°
2026-05-03 21:06 39.17134 -95.71610 37897 ft 413 kts 266°
2026-05-03 21:06 39.16250 -95.78942 37903 ft 414 kts 266°
2026-05-03 21:07 39.15358 -95.86277 37900 ft 414 kts 266°
2026-05-03 21:07 39.14463 -95.93603 37898 ft 414 kts 266°
2026-05-03 21:08 39.13566 -96.00925 37897 ft 413 kts 266°
2026-05-03 21:08 39.12664 -96.08235 37900 ft 413 kts 266°
2026-05-03 21:09 39.11757 -96.15533 37895 ft 413 kts 266°
2026-05-03 21:09 39.10847 -96.22833 37891 ft 413 kts 266°
2026-05-03 21:10 39.09934 -96.30138 37888 ft 413 kts 266°
2026-05-03 21:10 39.09011 -96.37450 37887 ft 414 kts 266°
2026-05-03 21:11 39.08085 -96.44763 37891 ft 414 kts 265°
2026-05-03 21:11 39.07154 -96.52074 37889 ft 414 kts 265°
2026-05-03 21:12 39.06218 -96.59382 37885 ft 414 kts 265°
2026-05-03 21:12 39.05279 -96.66691 37893 ft 414 kts 265°
2026-05-03 21:13 39.04335 -96.73995 37882 ft 414 kts 265°
2026-05-03 21:13 39.03385 -96.81305 37877 ft 414 kts 265°
2026-05-03 21:14 39.02433 -96.88599 37877 ft 413 kts 265°
2026-05-03 21:14 39.01481 -96.95837 37879 ft 413 kts 265°
2026-05-03 21:15 39.00511 -97.03127 37885 ft 413 kts 265°
2026-05-03 21:15 38.99537 -97.10390 37887 ft 411 kts 265°
2026-05-03 21:16 38.98569 -97.17607 37883 ft 409 kts 265°
2026-05-03 21:16 38.97601 -97.24798 37887 ft 408 kts 265°
2026-05-03 21:17 38.96795 -97.30760 37887 ft 407 kts 265°
2026-05-03 21:17 38.95653 -97.39147 37891 ft 408 kts 264°
2026-05-03 21:18 38.94670 -97.46340 37891 ft 409 kts 264°
2026-05-03 21:18 38.93682 -97.53540 37890 ft 410 kts 264°
2026-05-03 21:19 38.92686 -97.60753 37889 ft 410 kts 264°
2026-05-03 21:19 38.91750 -97.67980 37887 ft 410 kts 265°
2026-05-03 21:20 38.90885 -97.75212 37891 ft 410 kts 265°
2026-05-03 21:20 38.90014 -97.82445 37889 ft 410 kts 265°
2026-05-03 21:21 38.89132 -97.89676 37896 ft 410 kts 265°
2026-05-03 21:21 38.88240 -97.96893 37897 ft 409 kts 265°
2026-05-03 21:22 38.87342 -98.04106 37904 ft 410 kts 265°
2026-05-03 21:22 38.86442 -98.11325 37911 ft 410 kts 265°
2026-05-03 21:23 38.85535 -98.18550 37909 ft 410 kts 265°
2026-05-03 21:23 38.84776 -98.24560 37918 ft 410 kts 265°
2026-05-03 21:24 38.83711 -98.32959 37917 ft 411 kts 265°
2026-05-03 21:24 38.82790 -98.40182 37913 ft 411 kts 264°
2026-05-03 21:25 38.82016 -98.46234 37907 ft 410 kts 264°
2026-05-03 21:25 38.81086 -98.53446 37901 ft 410 kts 264°
2026-05-03 21:26 38.80155 -98.60655 37889 ft 410 kts 264°
2026-05-03 21:26 38.79218 -98.67855 37882 ft 410 kts 264°
2026-05-03 21:27 38.78277 -98.75055 37875 ft 410 kts 264°
2026-05-03 21:27 38.77336 -98.82212 37871 ft 410 kts 264°
2026-05-03 21:28 38.76386 -98.89421 37869 ft 410 kts 264°
2026-05-03 21:28 38.75431 -98.96627 37881 ft 410 kts 264°
2026-05-03 21:29 38.74471 -99.03833 37868 ft 410 kts 264°
2026-05-03 21:29 38.73506 -99.11036 37867 ft 410 kts 264°
2026-05-03 21:30 38.72536 -99.18235 37870 ft 411 kts 264°
2026-05-03 21:30 38.71562 -99.25443 37868 ft 411 kts 264°
2026-05-03 21:31 38.70585 -99.32650 37867 ft 411 kts 264°
2026-05-03 21:31 38.69603 -99.39851 37864 ft 411 kts 264°
2026-05-03 21:32 38.68615 -99.47053 37877 ft 411 kts 263°
2026-05-03 21:32 38.67619 -99.54254 37879 ft 411 kts 263°
2026-05-03 21:33 38.66623 -99.61454 37883 ft 411 kts 263°
2026-05-03 21:33 38.65624 -99.68655 37880 ft 411 kts 263°
2026-05-03 21:34 38.64619 -99.75859 37882 ft 411 kts 263°
2026-05-03 21:34 38.63608 -99.83057 37877 ft 412 kts 263°
2026-05-03 21:35 38.62590 -99.90263 37885 ft 412 kts 263°
2026-05-03 21:35 38.61575 -99.97426 37876 ft 412 kts 263°
2026-05-03 21:36 38.60551 -100.04633 37887 ft 412 kts 263°
2026-05-03 21:36 38.59520 -100.11831 37895 ft 412 kts 263°
2026-05-03 21:37 38.58486 -100.19028 37901 ft 412 kts 263°
2026-05-03 21:37 38.57447 -100.26230 37897 ft 412 kts 263°
2026-05-03 21:38 38.56404 -100.33423 37897 ft 412 kts 263°
2026-05-03 21:38 38.55357 -100.40619 37895 ft 412 kts 263°
2026-05-03 21:39 38.54306 -100.47804 37886 ft 411 kts 262°
2026-05-03 21:39 38.53249 -100.54986 37894 ft 411 kts 263°
2026-05-03 21:40 38.52190 -100.62164 37887 ft 411 kts 262°
2026-05-03 21:40 38.51127 -100.69333 37890 ft 411 kts 262°
2026-05-03 21:41 38.50061 -100.76495 37888 ft 410 kts 262°
2026-05-03 21:41 38.49000 -100.83599 37892 ft 410 kts 262°
2026-05-03 21:42 38.47925 -100.90751 37889 ft 410 kts 262°
2026-05-03 21:42 38.46847 -100.97900 37889 ft 410 kts 262°
2026-05-03 21:43 38.45763 -101.05046 37891 ft 410 kts 262°
2026-05-03 21:43 38.44677 -101.12192 37890 ft 410 kts 262°
2026-05-03 21:44 38.43584 -101.19338 37887 ft 410 kts 262°
2026-05-03 21:44 38.42489 -101.26471 37888 ft 410 kts 262°
2026-05-03 21:45 38.41394 -101.33594 37887 ft 409 kts 262°
2026-05-03 21:45 38.40288 -101.40721 37890 ft 410 kts 262°
2026-05-03 21:46 38.39182 -101.47839 37890 ft 409 kts 262°
2026-05-03 21:46 38.38072 -101.54950 37894 ft 409 kts 262°
2026-05-03 21:47 38.36962 -101.62051 37892 ft 408 kts 262°
2026-05-03 21:47 38.35844 -101.69147 37886 ft 408 kts 262°
2026-05-03 21:48 38.34732 -101.76192 37892 ft 408 kts 262°
2026-05-03 21:48 38.33607 -101.83286 37887 ft 409 kts 262°
2026-05-03 21:49 38.32476 -101.90388 37886 ft 409 kts 262°
2026-05-03 21:49 38.31339 -101.97486 37893 ft 409 kts 262°
2026-05-03 21:50 38.30203 -102.04574 37898 ft 409 kts 262°
2026-05-03 21:50 38.29062 -102.11678 37897 ft 409 kts 262°
2026-05-03 21:51 38.27918 -102.18769 37897 ft 409 kts 261°
2026-05-03 21:51 38.26763 -102.25867 37903 ft 409 kts 261°
2026-05-03 21:52 38.25608 -102.32958 37908 ft 409 kts 261°
2026-05-03 21:52 38.24450 -102.40043 37913 ft 409 kts 261°
2026-05-03 21:53 38.23288 -102.47124 37918 ft 409 kts 261°
2026-05-03 21:53 38.22121 -102.54201 37917 ft 409 kts 261°
2026-05-03 21:54 38.20950 -102.61278 37915 ft 409 kts 261°
2026-05-03 21:54 38.19758 -102.68357 37919 ft 410 kts 259°
2026-05-03 21:55 38.18067 -102.75300 37913 ft 412 kts 255°
2026-05-03 21:55 38.16277 -102.82219 37919 ft 412 kts 255°
2026-05-03 21:56 38.14505 -102.89092 37924 ft 412 kts 256°
2026-05-03 21:56 38.12724 -102.96002 37928 ft 412 kts 255°
2026-05-03 21:57 38.10938 -103.02922 37937 ft 412 kts 255°
2026-05-03 21:57 38.09151 -103.09833 37933 ft 412 kts 255°
2026-05-03 21:58 38.07357 -103.16750 37941 ft 412 kts 255°
2026-05-03 21:58 38.05558 -103.23662 37954 ft 412 kts 255°
2026-05-03 21:59 38.03758 -103.30565 37951 ft 412 kts 255°
2026-05-03 21:59 38.01955 -103.37463 37964 ft 412 kts 255°
2026-05-03 22:00 38.00141 -103.44373 37937 ft 413 kts 255°
2026-05-03 22:00 37.98323 -103.51275 37934 ft 413 kts 255°
2026-05-03 22:01 37.96505 -103.58172 37925 ft 412 kts 255°
2026-05-03 22:01 37.94689 -103.65042 37921 ft 411 kts 255°
2026-05-03 22:02 37.92872 -103.71897 37929 ft 410 kts 255°
2026-05-03 22:02 37.91050 -103.78747 37929 ft 410 kts 255°
2026-05-03 22:03 37.89226 -103.85596 37936 ft 411 kts 255°
2026-05-03 22:03 37.87393 -103.92457 37932 ft 412 kts 255°
2026-05-03 22:04 37.85553 -103.99324 37941 ft 412 kts 255°
2026-05-03 22:04 37.83704 -104.06201 37942 ft 413 kts 255°
2026-05-03 22:05 37.81850 -104.13077 37947 ft 413 kts 255°
2026-05-03 22:05 37.79994 -104.19944 37957 ft 413 kts 255°
2026-05-03 22:06 37.78137 -104.26800 37959 ft 412 kts 255°
2026-05-03 22:06 37.76282 -104.33636 37977 ft 410 kts 255°
2026-05-03 22:07 37.74426 -104.40452 37991 ft 409 kts 255°
2026-05-03 22:07 37.72571 -104.47251 37992 ft 409 kts 255°
2026-05-03 22:08 37.70727 -104.53992 38005 ft 408 kts 255°
2026-05-03 22:08 37.68871 -104.60755 38028 ft 407 kts 255°
2026-05-03 22:09 37.67013 -104.67504 38029 ft 407 kts 255°
2026-05-03 22:10 37.64226 -104.77602 38033 ft 406 kts 255°
2026-05-03 22:10 37.62366 -104.84318 38031 ft 405 kts 255°
2026-05-03 22:11 37.60505 -104.91020 38055 ft 404 kts 255°
2026-05-03 22:11 37.58647 -104.97693 38125 ft 402 kts 255°
2026-05-03 22:12 37.56795 -105.04336 38210 ft 401 kts 255°
2026-05-03 22:12 37.54943 -105.10957 38299 ft 400 kts 255°
2026-05-03 22:13 37.53086 -105.17585 38321 ft 402 kts 255°
2026-05-03 22:13 37.51217 -105.24233 38336 ft 403 kts 255°
2026-05-03 22:14 37.49335 -105.30907 38331 ft 405 kts 255°
2026-05-03 22:14 37.47449 -105.37588 38309 ft 405 kts 255°
2026-05-03 22:15 37.45880 -105.43128 38298 ft 404 kts 255°
2026-05-03 22:15 37.43686 -105.50859 38252 ft 403 kts 255°
2026-05-03 22:16 37.42105 -105.56416 38211 ft 402 kts 255°
2026-05-03 22:16 37.40217 -105.63037 38173 ft 402 kts 255°
2026-05-03 22:17 37.38327 -105.69646 38153 ft 402 kts 255°
2026-05-03 22:17 37.36440 -105.76239 38123 ft 401 kts 255°
2026-05-03 22:18 37.34555 -105.82818 38111 ft 399 kts 255°
2026-05-03 22:18 37.32863 -105.89403 38112 ft 398 kts 257°
2026-05-03 22:19 37.31220 -105.96050 38111 ft 399 kts 257°
2026-05-03 22:19 37.29554 -106.02699 38111 ft 399 kts 256°
2026-05-03 22:20 37.27876 -106.09341 38113 ft 399 kts 256°
2026-05-03 22:20 37.26189 -106.15972 38119 ft 399 kts 256°
2026-05-03 22:21 37.24496 -106.22595 38118 ft 399 kts 256°
2026-05-03 22:21 37.22798 -106.29220 38127 ft 399 kts 256°
2026-05-03 22:22 37.21098 -106.35843 38131 ft 399 kts 256°
2026-05-03 22:22 37.19394 -106.42463 38173 ft 398 kts 256°
2026-05-03 22:23 37.17693 -106.49049 38263 ft 396 kts 256°
2026-05-03 22:23 37.15993 -106.55618 38279 ft 396 kts 256°
2026-05-03 22:24 37.14287 -106.62193 38293 ft 397 kts 256°
2026-05-03 22:24 37.12570 -106.68794 38300 ft 399 kts 256°
2026-05-03 22:25 37.10849 -106.75391 38312 ft 397 kts 256°
2026-05-03 22:25 37.09125 -106.81986 38269 ft 399 kts 256°
2026-05-03 22:26 37.07396 -106.88579 38233 ft 398 kts 255°
2026-05-03 22:26 37.05668 -106.95145 38220 ft 396 kts 255°
2026-05-03 22:27 37.03956 -107.01653 38217 ft 396 kts 255°
2026-05-03 22:27 37.02230 -107.08193 38208 ft 396 kts 255°
2026-05-03 22:28 37.00495 -107.14744 38166 ft 396 kts 255°
2026-05-03 22:28 36.98758 -107.21281 38160 ft 396 kts 255°
2026-05-03 22:29 36.97017 -107.27821 38148 ft 396 kts 255°
2026-05-03 22:29 36.95274 -107.34350 38130 ft 396 kts 255°
2026-05-03 22:30 36.93531 -107.40869 38142 ft 395 kts 255°
2026-05-03 22:30 36.91784 -107.47391 38124 ft 396 kts 255°
2026-05-03 22:31 36.90028 -107.53922 38124 ft 397 kts 255°
2026-05-03 22:31 36.88267 -107.60453 38124 ft 397 kts 255°
2026-05-03 22:32 36.86501 -107.66985 38116 ft 397 kts 255°
2026-05-03 22:32 36.84730 -107.73522 38109 ft 398 kts 255°
2026-05-03 22:33 36.82955 -107.80058 38102 ft 397 kts 255°
2026-05-03 22:33 36.81182 -107.86574 38097 ft 396 kts 255°
2026-05-03 22:34 36.79408 -107.93081 38082 ft 396 kts 255°
2026-05-03 22:34 36.77633 -107.99573 38071 ft 395 kts 255°
2026-05-03 22:35 36.75857 -108.06049 38065 ft 395 kts 255°
2026-05-03 22:35 36.74280 -108.12582 38060 ft 392 kts 259°
2026-05-03 22:36 36.73081 -108.19218 38057 ft 393 kts 259°
2026-05-03 22:36 36.71876 -108.25810 38056 ft 393 kts 259°
2026-05-03 22:37 36.70654 -108.32455 38055 ft 393 kts 259°
2026-05-03 22:37 36.69424 -108.39099 38055 ft 393 kts 259°
2026-05-03 22:38 36.68192 -108.45741 38058 ft 394 kts 259°
2026-05-03 22:38 36.66955 -108.52384 38063 ft 394 kts 259°
2026-05-03 22:39 36.65715 -108.59023 38063 ft 393 kts 259°
2026-05-03 22:39 36.64472 -108.65651 38063 ft 393 kts 259°
2026-05-03 22:40 36.63225 -108.72276 38063 ft 393 kts 259°
2026-05-03 22:40 36.61978 -108.78891 38065 ft 392 kts 259°
2026-05-03 22:41 36.60725 -108.85503 38074 ft 393 kts 259°
2026-05-03 22:41 36.59468 -108.92122 38071 ft 393 kts 259°
2026-05-03 22:42 36.58209 -108.98736 38081 ft 393 kts 259°
2026-05-03 22:42 36.56945 -109.05348 38088 ft 393 kts 258°
2026-05-03 22:43 36.55674 -109.11968 38089 ft 393 kts 258°
2026-05-03 22:43 36.54403 -109.18576 38102 ft 393 kts 258°
2026-05-03 22:44 36.53127 -109.25192 38088 ft 393 kts 258°
2026-05-03 22:44 36.51858 -109.31750 38096 ft 393 kts 258°
2026-05-03 22:45 36.50572 -109.38361 38081 ft 393 kts 258°
2026-05-03 22:45 36.49280 -109.44995 38082 ft 392 kts 258°
2026-05-03 22:46 36.48005 -109.51524 38082 ft 391 kts 258°
2026-05-03 22:46 36.46715 -109.58095 38055 ft 391 kts 258°
2026-05-03 22:47 36.45426 -109.64655 38043 ft 391 kts 258°
2026-05-03 22:47 36.44135 -109.71201 38051 ft 390 kts 258°
2026-05-03 22:48 36.42842 -109.77731 38045 ft 389 kts 258°
2026-05-03 22:48 36.41546 -109.84263 38040 ft 390 kts 258°
2026-05-03 22:49 36.40245 -109.90794 38038 ft 390 kts 258°
2026-05-03 22:49 36.38945 -109.97319 38041 ft 389 kts 258°
2026-05-03 22:50 36.37636 -110.03844 38036 ft 390 kts 258°
2026-05-03 22:50 36.36325 -110.10367 38030 ft 390 kts 258°
2026-05-03 22:51 36.35009 -110.16893 38028 ft 390 kts 258°
2026-05-03 22:51 36.33693 -110.23413 38025 ft 390 kts 258°
2026-05-03 22:52 36.32369 -110.29942 38023 ft 390 kts 257°
2026-05-03 22:52 36.31042 -110.36460 38029 ft 390 kts 257°
2026-05-03 22:53 36.29700 -110.42969 38024 ft 390 kts 257°
2026-05-03 22:53 36.28351 -110.49482 38020 ft 390 kts 257°
2026-05-03 22:54 36.27001 -110.55998 38014 ft 390 kts 257°
2026-05-03 22:54 36.25645 -110.62518 37999 ft 391 kts 257°
2026-05-03 22:55 36.24284 -110.69041 37990 ft 391 kts 257°
2026-05-03 22:55 36.22921 -110.75565 37984 ft 391 kts 257°
2026-05-03 22:56 36.21555 -110.82077 38001 ft 390 kts 257°
2026-05-03 22:56 36.20190 -110.88578 37996 ft 390 kts 257°
2026-05-03 22:57 36.18831 -110.95074 38008 ft 390 kts 257°
2026-05-03 22:57 36.17470 -111.01568 38007 ft 390 kts 257°
2026-05-03 22:58 36.16112 -111.08023 38012 ft 390 kts 257°
2026-05-03 22:58 36.14743 -111.14517 38018 ft 390 kts 257°
2026-05-03 22:59 36.13372 -111.21001 38020 ft 390 kts 257°
2026-05-03 22:59 36.12102 -111.27509 38023 ft 388 kts 261°
2026-05-03 23:00 36.11441 -111.34128 38006 ft 388 kts 264°
2026-05-03 23:00 36.10852 -111.40761 38011 ft 388 kts 264°
2026-05-03 23:01 36.10251 -111.47381 38011 ft 387 kts 264°
2026-05-03 23:01 36.09644 -111.53986 38025 ft 387 kts 263°
2026-05-03 23:02 36.09035 -111.60585 38031 ft 386 kts 263°
2026-05-03 23:02 36.08424 -111.67183 38032 ft 386 kts 263°
2026-05-03 23:03 36.07808 -111.73773 38042 ft 386 kts 263°
2026-05-03 23:03 36.06959 -111.80309 38059 ft 385 kts 258°
2026-05-03 23:04 36.05732 -111.85610 38066 ft 387 kts 253°
2026-05-03 23:04 36.03791 -111.91831 38048 ft 389 kts 251°
2026-05-03 23:05 36.01457 -111.99028 38059 ft 388 kts 251°
2026-05-03 23:05 35.99461 -112.05214 38060 ft 387 kts 251°
2026-05-03 23:06 35.97793 -112.10393 38066 ft 387 kts 251°
2026-05-03 23:06 35.95802 -112.16578 38062 ft 387 kts 251°
2026-05-03 23:07 35.93826 -112.22715 38064 ft 387 kts 251°
2026-05-03 23:07 35.91835 -112.28883 38064 ft 387 kts 251°
2026-05-03 23:08 35.89838 -112.35054 38067 ft 387 kts 251°
2026-05-03 23:08 35.87839 -112.41221 38066 ft 387 kts 251°
2026-05-03 23:09 35.85838 -112.47382 38060 ft 387 kts 251°
2026-05-03 23:09 35.83831 -112.53542 38052 ft 387 kts 251°
2026-05-03 23:10 35.81824 -112.59694 38056 ft 386 kts 251°
2026-05-03 23:10 35.79817 -112.65832 38057 ft 386 kts 251°
2026-05-03 23:11 35.77807 -112.71968 38047 ft 386 kts 251°
2026-05-03 23:11 35.75796 -112.78098 38045 ft 386 kts 251°
2026-05-03 23:12 35.73783 -112.84219 38038 ft 386 kts 251°
2026-05-03 23:12 35.71762 -112.90342 38035 ft 386 kts 251°
2026-05-03 23:13 35.69743 -112.96460 38032 ft 386 kts 250°
2026-05-03 23:13 35.67721 -113.02572 38024 ft 386 kts 250°
2026-05-03 23:14 35.65695 -113.08679 37997 ft 385 kts 250°
2026-05-03 23:14 35.63671 -113.14775 38004 ft 385 kts 250°
2026-05-03 23:15 35.61646 -113.20864 37989 ft 385 kts 250°
2026-05-03 23:15 35.59612 -113.26948 37969 ft 385 kts 250°
2026-05-03 23:16 35.57590 -113.32977 37958 ft 384 kts 250°
2026-05-03 23:16 35.55554 -113.39039 37959 ft 384 kts 250°
2026-05-03 23:17 35.53516 -113.45100 37944 ft 384 kts 250°
2026-05-03 23:17 35.51474 -113.51160 37938 ft 384 kts 250°
2026-05-03 23:18 35.49428 -113.57215 37922 ft 384 kts 250°
2026-05-03 23:18 35.47382 -113.63265 37916 ft 384 kts 250°
2026-05-03 23:19 35.45336 -113.69302 37902 ft 383 kts 250°
2026-05-03 23:19 35.43290 -113.75337 37898 ft 384 kts 250°
2026-05-03 23:20 35.41232 -113.81367 37895 ft 384 kts 250°
2026-05-03 23:20 35.39174 -113.87400 37900 ft 384 kts 250°
2026-05-03 23:21 35.37112 -113.93438 37891 ft 384 kts 250°
2026-05-03 23:21 35.35061 -113.99430 37889 ft 384 kts 250°
2026-05-03 23:22 35.31963 -114.08457 37876 ft 383 kts 249°
2026-05-03 23:22 35.29897 -114.14466 37879 ft 383 kts 249°
2026-05-03 23:23 35.27824 -114.20481 37863 ft 384 kts 249°
2026-05-03 23:23 35.25744 -114.26503 37844 ft 384 kts 249°
2026-05-03 23:24 35.23660 -114.32525 37815 ft 385 kts 249°
2026-05-03 23:24 35.21572 -114.38549 37790 ft 385 kts 249°
2026-05-03 23:25 35.19478 -114.44575 37765 ft 385 kts 249°
2026-05-03 23:25 35.17382 -114.50599 37754 ft 385 kts 249°
2026-05-03 23:26 35.15284 -114.56618 37743 ft 384 kts 249°
2026-05-03 23:26 35.13188 -114.62617 37734 ft 383 kts 249°
2026-05-03 23:27 35.11112 -114.68603 37736 ft 382 kts 249°
2026-05-03 23:27 35.09056 -114.74532 37743 ft 382 kts 249°
2026-05-03 23:28 35.06983 -114.80501 37750 ft 382 kts 249°
2026-05-03 23:28 35.04902 -114.86482 37746 ft 383 kts 249°
2026-05-03 23:29 35.02751 -114.92435 37748 ft 384 kts 246°
2026-05-03 23:29 35.00254 -114.98211 37759 ft 385 kts 245°
2026-05-03 23:30 34.97707 -115.03954 37760 ft 385 kts 245°
2026-05-03 23:30 34.95183 -115.09711 37759 ft 385 kts 245°
2026-05-03 23:31 34.92672 -115.15481 37769 ft 385 kts 245°
2026-05-03 23:31 34.90165 -115.21246 37768 ft 385 kts 245°
2026-05-03 23:32 34.87655 -115.27004 37767 ft 385 kts 245°
2026-05-03 23:32 34.85144 -115.32750 37778 ft 384 kts 245°
2026-05-03 23:33 34.82634 -115.38494 37781 ft 384 kts 245°
2026-05-03 23:33 34.80121 -115.44235 37786 ft 384 kts 245°
2026-05-03 23:34 34.77779 -115.50007 37797 ft 383 kts 248°
2026-05-03 23:34 34.75643 -115.55936 37803 ft 383 kts 249°
2026-05-03 23:35 34.73534 -115.61765 37820 ft 383 kts 248°
2026-05-03 23:35 34.71537 -115.67203 37824 ft 383 kts 248°
2026-05-03 23:36 34.69355 -115.73112 37823 ft 384 kts 248°
2026-05-03 23:36 34.67164 -115.79039 37828 ft 385 kts 248°
2026-05-03 23:37 34.64968 -115.84964 37835 ft 385 kts 248°
2026-05-03 23:37 34.62765 -115.90900 37841 ft 385 kts 248°
2026-05-03 23:38 34.60576 -115.96834 37846 ft 385 kts 248°
2026-05-03 23:38 34.58392 -116.02763 37850 ft 384 kts 248°
2026-05-03 23:39 34.56208 -116.08674 37853 ft 383 kts 248°
2026-05-03 23:39 34.54025 -116.14569 37870 ft 383 kts 248°
2026-05-03 23:40 34.51844 -116.20451 37889 ft 382 kts 248°
2026-05-03 23:40 34.49659 -116.26330 37889 ft 383 kts 248°
2026-05-03 23:41 34.47469 -116.32214 37887 ft 383 kts 248°
2026-05-03 23:41 34.46368 -116.35170 37360 ft 389 kts 248°
2026-05-03 23:41 34.45254 -116.38154 36860 ft 385 kts 248°
2026-05-03 23:42 34.44156 -116.41095 36226 ft 381 kts 248°
2026-05-03 23:42 34.43067 -116.44005 35330 ft 376 kts 248°
2026-05-03 23:42 34.41983 -116.46903 33746 ft 386 kts 248°
2026-05-03 23:42 34.40833 -116.49904 32423 ft 397 kts 246°
2026-05-03 23:43 34.39597 -116.52906 31352 ft 400 kts 245°
2026-05-03 23:43 34.38340 -116.55906 30441 ft 399 kts 245°
2026-05-03 23:43 34.37110 -116.58847 29671 ft 395 kts 244°
2026-05-03 23:43 34.35878 -116.61812 28837 ft 392 kts 244°
2026-05-03 23:44 34.34663 -116.64751 28023 ft 389 kts 244°
2026-05-03 23:44 34.33457 -116.67673 27248 ft 386 kts 244°
2026-05-03 23:44 34.32307 -116.70506 26852 ft 364 kts 244°
2026-05-03 23:44 34.31225 -116.73200 26314 ft 349 kts 244°
2026-05-03 23:45 34.30183 -116.75803 25665 ft 343 kts 244°
2026-05-03 23:45 34.29141 -116.78402 25104 ft 340 kts 244°
2026-05-03 23:45 34.28114 -116.80955 24477 ft 340 kts 244°
2026-05-03 23:45 34.27071 -116.83544 23993 ft 344 kts 244°
2026-05-03 23:46 34.26028 -116.86132 23759 ft 341 kts 244°
2026-05-03 23:46 34.24994 -116.88695 23525 ft 338 kts 244°
2026-05-03 23:46 34.23968 -116.91237 23299 ft 336 kts 244°
2026-05-03 23:46 34.22945 -116.93767 23029 ft 334 kts 244°
2026-05-03 23:47 34.21922 -116.96293 22726 ft 334 kts 243°
2026-05-03 23:47 34.20924 -116.98829 22427 ft 335 kts 246°
2026-05-03 23:47 34.20135 -117.01477 22166 ft 335 kts 250°
2026-05-03 23:47 34.19452 -117.04170 21857 ft 335 kts 251°
2026-05-03 23:48 34.18772 -117.06863 21638 ft 335 kts 251°
2026-05-03 23:48 34.18069 -117.09536 21410 ft 334 kts 250°
2026-05-03 23:48 34.17354 -117.12199 21118 ft 334 kts 250°
2026-05-03 23:48 34.16636 -117.14856 20606 ft 333 kts 249°
2026-05-03 23:49 34.15923 -117.17476 20102 ft 330 kts 249°
2026-05-03 23:49 34.15201 -117.20101 19605 ft 329 kts 249°
2026-05-03 23:49 34.14478 -117.22716 19107 ft 328 kts 249°
2026-05-03 23:49 34.13756 -117.25330 18601 ft 327 kts 249°
2026-05-03 23:50 34.13038 -117.27933 18105 ft 326 kts 249°
2026-05-03 23:50 34.12556 -117.29683 17782 ft 326 kts 249°
2026-05-03 23:50 34.11609 -117.33116 17118 ft 325 kts 249°
2026-05-03 23:50 34.10897 -117.35698 16624 ft 324 kts 248°
2026-05-03 23:51 34.10194 -117.38283 16135 ft 324 kts 249°
2026-05-03 23:51 34.09545 -117.40883 15645 ft 324 kts 250°
2026-05-03 23:51 34.08905 -117.43485 15148 ft 323 kts 250°
2026-05-03 23:51 34.08261 -117.46080 14659 ft 323 kts 250°
2026-05-03 23:52 34.07613 -117.48672 14176 ft 320 kts 249°
2026-05-03 23:52 34.06985 -117.51179 13732 ft 305 kts 249°
2026-05-03 23:52 34.06360 -117.53631 13330 ft 308 kts 249°
2026-05-03 23:52 34.05720 -117.56122 12913 ft 312 kts 249°
2026-05-03 23:53 34.05079 -117.58621 12491 ft 312 kts 249°
2026-05-03 23:53 34.04441 -117.61116 12074 ft 311 kts 248°
2026-05-03 23:53 34.03806 -117.63600 11659 ft 309 kts 249°
2026-05-03 23:53 34.03171 -117.66075 11248 ft 309 kts 249°
2026-05-03 23:54 34.02539 -117.68536 10833 ft 304 kts 249°
2026-05-03 23:54 34.02001 -117.70940 10435 ft 292 kts 257°
2026-05-03 23:54 34.01754 -117.73339 10064 ft 288 kts 261°
2026-05-03 23:54 34.01562 -117.75769 9688 ft 292 kts 262°
2026-05-03 23:55 34.01362 -117.78200 9299 ft 291 kts 262°
2026-05-03 23:55 34.01148 -117.80602 8906 ft 284 kts 262°
2026-05-03 23:55 34.00924 -117.82970 8532 ft 283 kts 262°
2026-05-03 23:55 34.00702 -117.85287 8157 ft 273 kts 262°
2026-05-03 23:56 34.00486 -117.87516 7799 ft 264 kts 262°
2026-05-03 23:56 34.00276 -117.89661 7465 ft 260 kts 262°
2026-05-03 23:56 34.00106 -117.91825 7130 ft 262 kts 263°
2026-05-03 23:56 33.99926 -117.94019 6779 ft 262 kts 262°
2026-05-03 23:57 33.99722 -117.96201 6432 ft 262 kts 262°
2026-05-03 23:57 33.99504 -117.98389 6083 ft 263 kts 261°
2026-05-03 23:57 33.99282 -118.00564 5839 ft 257 kts 261°
2026-05-03 23:57 33.99073 -118.02629 5785 ft 242 kts 261°
2026-05-03 23:58 33.98865 -118.04624 5775 ft 238 kts 261°
2026-05-03 23:58 33.98727 -118.05959 5563 ft 235 kts 261°
2026-05-03 23:58 33.98530 -118.07865 5280 ft 227 kts 261°
2026-05-03 23:58 33.98338 -118.09733 4983 ft 223 kts 261°
2026-05-03 23:59 33.98150 -118.11573 4714 ft 226 kts 261°
2026-05-03 23:59 33.97955 -118.13462 4415 ft 227 kts 261°
2026-05-03 23:59 33.97765 -118.15330 4145 ft 225 kts 261°
2026-05-03 23:59 33.97572 -118.17201 3820 ft 224 kts 261°
2026-05-04 00:00 33.97384 -118.19043 3530 ft 215 kts 261°
2026-05-04 00:00 33.97211 -118.20745 3244 ft 197 kts 261°
2026-05-04 00:00 33.97050 -118.22307 3001 ft 179 kts 261°
2026-05-04 00:00 33.96903 -118.23734 2753 ft 165 kts 261°
2026-05-04 00:01 33.96770 -118.25035 2554 ft 149 kts 261°
2026-05-04 00:01 33.96647 -118.26229 2370 ft 141 kts 262°
2026-05-04 00:01 33.96526 -118.27393 2181 ft 140 kts 262°
2026-05-04 00:01 33.96407 -118.28557 1998 ft 140 kts 263°
2026-05-04 00:02 33.96287 -118.29716 1812 ft 139 kts 263°
2026-05-04 00:02 33.96168 -118.30870 1627 ft 138 kts 264°
2026-05-04 00:02 33.96051 -118.32015 1443 ft 137 kts 264°
2026-05-04 00:02 33.95934 -118.33157 1264 ft 138 kts 265°
2026-05-04 00:03 33.95817 -118.34303 1083 ft 137 kts 265°
2026-05-04 00:03 33.95705 -118.35433 901 ft 133 kts 264°
2026-05-04 00:03 33.95597 -118.36529 716 ft 132 kts 262°
2026-05-04 00:03 33.95480 -118.37630 544 ft 134 kts 263°
2026-05-04 00:04 33.95369 -118.38738 368 ft 133 kts 262°
2026-05-04 00:04 33.95249 -118.39841 212 ft 133 kts 263°
2026-05-04 00:04 33.95133 -118.40935 110 ft 126 kts 264°
2026-05-04 00:04 33.95042 -118.41844 99 ft 87 kts 263°
2026-05-04 00:05 33.94989 -118.42263 101 ft 32 kts 249°
2026-05-04 00:05 33.94891 -118.42437 99 ft 19 kts 225°
2026-05-04 00:05 33.94873 -118.42455 100 ft 0 kts 218°
2026-05-04 00:06 33.94810 -118.42487 104 ft 16 kts 189°
2026-05-04 00:07 33.94689 -118.42468 101 ft 19 kts 147°
2026-05-04 00:07 33.94672 -118.42325 98 ft 20 kts 84°
2026-05-04 00:07 33.94693 -118.42132 99 ft 26 kts 82°
2026-05-04 00:07 33.94715 -118.41916 101 ft 26 kts 83°
2026-05-04 00:08 33.94734 -118.41718 100 ft 19 kts 83°
2026-05-04 00:08 33.94751 -118.41556 97 ft 20 kts 83°
2026-05-04 00:08 33.94735 -118.41402 99 ft 16 kts 143°
2026-05-04 00:08 33.94641 -118.41378 97 ft 13 kts 173°
2026-05-04 00:09 33.94569 -118.41403 101 ft 10 kts 237°
2026-05-04 00:09 33.94561 -118.41447 100 ft 2 kts 268°
2026-05-04 00:09 33.94561 -118.41448 97 ft 0 kts 268°